Showing default

SPACEVAN-001, 58295

Orbit data source: Space-Track

SPACEVAN-001, 58295 is a payload satellite owned by Exotrail (FR) in SSO that was launched on Sat, 11 Nov 2023 UTC via an FALCON 9 launch vehicle from the Air Force Western Test Range (AFWTR). Payload-class satellites include a variety of spacecraft equipped with specific instruments for various scientific and technological missions. These include communications satellites like Starlink; space stations such as the ISS; scientific satellites like the Hubble; Earth observation satellites from companies like Planet Labs, Umbra, and HawkEye 360; GPS; miniature CubeSats for education and research; and military/defense satellites.

Loading next visibility...
Identifier
58295, 2023-174AR
Orbit
SSO
Country
Flag of FRFR
Related business
Manufacturer
NanoAvionics
Mission
Operational Commercial Technology
Bus & Motor
MP42, Unknown motor
Mass
125 kg wet, ~120 kg dry
Launch date (UTC)
2023-11-11 (3 years ago)
Launch vehicle
FALCON 9
Launch site
Air Force Western Test Range (AFWTR)
Object type
Payload
Rocket body
Debris
Shape & HBR
Box + 2 Pan, 1.8 m
Radar Cross Section
0.688 m², Large (>1 m²)

Expand to show TLE details & history
Last TLE update: 10 hours ago

TLE from 10 hours ago
0 SPACEVAN-001
1 58295U 23174AR  26176.29288212  .00017871  00000-0  23649-3 0  9993
2 58295  97.4002 273.6638 0008497  54.7147 305.4903 15.58334914147407
Epoch: 2026-06-25T07:01Z
TLE epoch observation values (Epoch: 2026-06-25T07:01:45.015Z)
Latitude
0.00005°
Longitude
-105.2116°
Altitude
392.281 km
Speed
7.677 km/s
True Right ascension
18h 14m 39s
True Declination
0° 00' 00"
Sunlit
Object was in full shadow at epoch
Visualization orbit readout
Latitude
Unknown
Longitude
Unknown
Altitude
Unknown
Speed
Unknown
Apparent Right ascension
Unknown
Apparent Declination
Unknown
Sunlit
N/A
Visualization observer readout
Local Sidereal Time
03:59:51
Azimuth
Unknown
Elevation
Unknown
Doppler factor
Unknown
Orbital elements
Apogee altitude
395.141 km
Perigee altitude
383.64 km
Semi-major axis
6,767.527 km
Eccentricity
0.00085
Inclination
97.4002°
RAAN
273.6638°
Arg. of periapsis
54.7147°
True anomaly
305.41097°
Mean anomaly
305.4903°
Eccentric anomaly
305.45064°
Mean motion
3.89851 °/min
Orbital period
92.34 mins
BSTAR
0.00023649
Loading maneuver chart data...
Computing Atmospheric mass density...
Loading historical data...
Loading historical data...
Loading historical data...
Loading historical data...
Loading historical data...
Loading historical data...
Loading historical data...

Documentation

Showing up to 5 results
|